📊 Raw Sensor Data

Showing records 40776 to 40800 of 84,970 total

ID Distance (ft) Battery V Battery A Int Temp (°F) Int Humid (%) Ext Temp (°F) Solar V RSSI SNR Time Stamp
44207 15.4 3.92 0 71 42 71 5.10 -67 8 06/22/2025 09:45 AM
44206 15.4 3.92 0 70 43 70 5.10 -68 7 06/22/2025 09:30 AM
44205 15.4 4.11 0 70 43 70 5.10 -68 8 06/22/2025 09:15 AM
44204 15.4 3.92 0 69 43 68 5.10 -68 7 06/22/2025 09:00 AM
44203 15.4 3.92 0 68 42 68 5.10 -68 8 06/22/2025 08:45 AM
44202 15.4 4.11 0 67 42 68 5.10 -69 8 06/22/2025 08:30 AM
44201 15.3 3.92 0 67 42 66 5.10 -66 8 06/22/2025 08:15 AM
44200 15.3 3.92 0 66 42 66 5.10 -67 8 06/22/2025 08:00 AM
44199 15.4 3.92 0 65 42 65 5.10 -66 8 06/22/2025 07:45 AM
44198 15.4 4.03 49 63 42 64 4.50 -67 8 06/22/2025 07:30 AM
44197 15.3 4.03 7 62 42 63 4.50 -68 8 06/22/2025 07:15 AM
44196 15.3 3.97 10 60 43 61 4.50 -67 8 06/22/2025 07:00 AM
44195 15.3 3.95 5 59 43 61 4.50 -67 8 06/22/2025 06:45 AM
44194 15.3 3.94 0 59 43 60 4.50 -67 8 06/22/2025 06:30 AM
44193 15.2 3.83 0 58 43 59 4.50 -67 8 06/22/2025 06:15 AM
44192 15.2 3.82 -16 58 42 59 4.50 -68 8 06/22/2025 06:00 AM
44191 15.2 3.81 -10 58 42 59 3.10 -67 8 06/22/2025 05:45 AM
44190 15.2 3.82 -5 58 42 60 1.10 -68 8 06/22/2025 05:30 AM
44189 15.2 3.92 -5 58 42 59 0.10 -69 8 06/22/2025 05:15 AM
44188 15.2 3.82 -5 58 42 60 0.10 -68 8 06/22/2025 05:00 AM
44187 15.2 3.82 -5 59 42 60 0.00 -65 8 06/22/2025 04:45 AM
44186 15.2 3.92 -5 58 42 61 0.00 -66 8 06/22/2025 04:30 AM
44185 15.2 3.82 -5 56 43 59 0.00 -68 8 06/22/2025 04:15 AM
44184 15.2 3.82 -5 56 43 58 0.00 -67 8 06/22/2025 04:00 AM
44183 15.2 3.82 -5 57 43 59 0.10 -68 8 06/22/2025 03:45 AM